Regional Weather Roundup
Issued by NWS

Home | Current Version | Previous Version | Graphics & Text | Print | Product List | Glossary On
Versions: 1 2 3 4 5 6 7 8 9 10 11 12 13 14 15 16 17 18 19 20 21 22 23 24 25 26 27 28 29 30 31 32 33 34 35 36 37 38 39 40 41 42 43 44 45 46 47 48 49 50
000
ASUS43 KIND 190659
RWRIN

WEATHER ROUNDUP FOR INDIANA
NATIONAL WEATHER SERVICE INDIANAPOLIS IN
300 AM EDT SAT APR 19 2014

NOTE: "FAIR" INDICATES FEW OR NO CLOUDS BELOW 12,000 FEET WITH NO
SIGNIFICANT WEATHER AND/OR OBSTRUCTIONS TO VISIBILITY.

* - STATION DOES NOT REPORT WEATHER SUCH AS PRECIPITATION OR FOG.

+ - STATION NOT QUALITY CONTROLLED BY THE NATIONAL WEATHER SERVICE.
    USE DATA WITH CAUTION...ESPECIALLY DEWPOINT AND RELATIVE
    HUMIDITY OBSERVATIONS.

INZ001>003-010>013-019-020-190800-
NORTHWEST INDIANA

CITY           SKY/WX    TMP DP  RH WIND       PRES   REMARKS
VALPARAISO     CLEAR     32  26  78 N5        30.35S WCI  27

$$

LMZ046-743>745-190800-
SOUTHERN LAKE MICHIGAN

STATION/POSITION TIME  TEMP WIND        PRES
                       AIR  DIR/SP/G
                 (UTC) (F)  (DEG/KT/KT) (MB)
MICHIGAN CITY    0600   38   10/ 11/ 12   N/A

$$

INZ004-005-014>016-021>024-190800-
NORTH CENTRAL INDIANA

CITY           SKY/WX    TMP DP  RH WIND       PRES   REMARKS
GOSHEN         CLEAR     36  27  69 N5        30.33S
SOUTH BEND     CLEAR     36  26  67 NE6       30.35S

$$

INZ006>009-017-018-025>027-190800-
NORTHEAST INDIANA

CITY           SKY/WX    TMP DP  RH WIND       PRES   REMARKS
ANGOLA *+      CLEAR     39  30  70 NE5       30.32F
FORT WAYNE     CLEAR     39  33  79 N7        30.31F

$$

INZ028-029-035-036-043>045-051>053-190800-
WEST CENTRAL INDIANA

CITY           SKY/WX    TMP DP  RH WIND       PRES   REMARKS
GREENCASTLE +  CLEAR     41  36  81 NE5       30.29S
LAFAYETTE      CLEAR     39  29  67 N6        30.30F
TERRE HAUTE    CLEAR     46  36  68 NE7       30.27F

$$

INZ030>032-037>040-046>048-054>057-064-065-190800-
CENTRAL INDIANA

CITY           SKY/WX    TMP DP  RH WIND       PRES   REMARKS
INDIANAPOLIS   PTCLDY    46  35  65 NE8       30.28F
-EAGLE CREEK   CLEAR     45  35  68 NE5       30.28S
KOKOMO *+      CLEAR     39  28  65 NE5       30.31S
MT COMFORT *+  CLEAR     41  37  87 N5        30.28F
SHELBYVILLE    PTCLDY    48  37  65 N8        30.26F

$$

INZ033-034-041-042-049-050-058-059-190800-
EAST CENTRAL INDIANA

CITY           SKY/WX    TMP DP  RH WIND       PRES   REMARKS
MUNCIE         CLEAR     41  35  79 N6        30.28F

$$

INZ060-061-067>069-081>083-085>088-190800-
SOUTHWEST INDIANA

CITY           SKY/WX    TMP DP  RH WIND       PRES   REMARKS
EVANSVILLE     PTCLDY    57  43  59 N8        30.22F
HUNTINGBURG *+ PTCLDY    52  39  62 NE8       30.23S

$$

INZ062-063-066-070>080-084-089>092-190800-
SOUTH CENTRAL AND SOUTHEAST INDIANA

CITY           SKY/WX    TMP DP  RH WIND       PRES   REMARKS
BLOOMINGTON    CLEAR     49  36  61 N6        30.26S

$$




USA.gov is the U.S. government's official web portal to all federal, state and local government web resources and services.